owner,sensor,date,latitude,longitude,vertical_datum,sea_water_temperature,qcFlag 
SCCF RECON,ioos:station:SCCF:56:1,2016-01-01T00:00:00Z,26.4645,-82.1044,1.64,26.24,2 
SCCF RECON,ioos:station:SCCF:56:1,2016-01-01T01:00:00Z,26.4645,-82.1044,1.64,26.18,2 
SCCF RECON,ioos:station:SCCF:56:1,2016-01-01T02:00:00Z,26.4645,-82.1044,1.64,26.19,2 
SCCF RECON,ioos:station:SCCF:56:1,2016-01-01T03:00:00Z,26.4645,-82.1044,1.64,26.24,2 
SCCF RECON,ioos:station:SCCF:56:1,2016-01-01T04:00:00Z,26.4645,-82.1044,1.64,26.28,2 
SCCF RECON,ioos:station:SCCF:56:1,2016-01-01T05:00:00Z,26.4645,-82.1044,1.64,26.28,2 
SCCF RECON,ioos:station:SCCF:56:1,2016-01-01T06:00:00Z,26.4645,-82.1044,1.64,26.23,2 
SCCF RECON,ioos:station:SCCF:56:1,2016-01-01T07:00:00Z,26.4645,-82.1044,1.64,26.07,2 
SCCF RECON,ioos:station:SCCF:56:1,2016-01-01T08:00:00Z,26.4645,-82.1044,1.64,26.0,2 
SCCF RECON,ioos:station:SCCF:56:1,2016-01-01T09:00:00Z,26.4645,-82.1044,1.64,25.22,2 
SCCF RECON,ioos:station:SCCF:56:1,2016-01-01T10:00:00Z,26.4645,-82.1044,1.64,25.63,2 
SCCF RECON,ioos:station:SCCF:56:1,2016-01-01T11:00:00Z,26.4645,-82.1044,1.64,25.56,2 
SCCF RECON,ioos:station:SCCF:56:1,2016-01-01T12:00:00Z,26.4645,-82.1044,1.64,25.6,2 
SCCF RECON,ioos:station:SCCF:56:1,2016-01-01T13:00:00Z,26.4645,-82.1044,1.64,25.65,2 
SCCF RECON,ioos:station:SCCF:56:1,2016-01-01T14:00:00Z,26.4645,-82.1044,1.64,25.69,2 
SCCF RECON,ioos:station:SCCF:56:1,2016-01-01T15:00:00Z,26.4645,-82.1044,1.64,25.61,2 
SCCF RECON,ioos:station:SCCF:56:1,2016-01-01T16:00:00Z,26.4645,-82.1044,1.64,26.01,2 
SCCF RECON,ioos:station:SCCF:56:1,2016-01-01T17:00:00Z,26.4645,-82.1044,1.64,26.26,2 
SCCF RECON,ioos:station:SCCF:56:1,2016-01-01T18:00:00Z,26.4645,-82.1044,1.64,26.42,2 
SCCF RECON,ioos:station:SCCF:56:1,2016-01-01T19:00:00Z,26.4645,-82.1044,1.64,26.81,2 
SCCF RECON,ioos:station:SCCF:56:1,2016-01-01T20:00:00Z,26.4645,-82.1044,1.64,26.42,2 
SCCF RECON,ioos:station:SCCF:56:1,2016-01-01T21:00:00Z,26.4645,-82.1044,1.64,26.35,2 
SCCF RECON,ioos:station:SCCF:56:1,2016-01-01T22:00:00Z,26.4645,-82.1044,1.64,26.2,2 
SCCF RECON,ioos:station:SCCF:56:1,2016-01-01T23:00:00Z,26.4645,-82.1044,1.64,26.03,2 
SCCF RECON,ioos:station:SCCF:56:1,2016-01-02T00:00:00Z,26.4645,-82.1044,1.64,25.97,2 
SCCF RECON,ioos:station:SCCF:56:1,2016-01-02T01:00:00Z,26.4645,-82.1044,1.64,26.42,2 
SCCF RECON,ioos:station:SCCF:56:1,2016-01-02T02:00:00Z,26.4645,-82.1044,1.64,26.01,2 
SCCF RECON,ioos:station:SCCF:56:1,2016-01-02T03:00:00Z,26.4645,-82.1044,1.64,26.06,2 
SCCF RECON,ioos:station:SCCF:56:1,2016-01-02T04:00:00Z,26.4645,-82.1044,1.64,26.1,2 
SCCF RECON,ioos:station:SCCF:56:1,2016-01-02T05:00:00Z,26.4645,-82.1044,1.64,26.09,2 
SCCF RECON,ioos:station:SCCF:56:1,2016-01-02T06:00:00Z,26.4645,-82.1044,1.64,26.04,2 
SCCF RECON,ioos:station:SCCF:56:1,2016-01-02T07:00:00Z,26.4645,-82.1044,1.64,25.99,2 
SCCF RECON,ioos:station:SCCF:56:1,2016-01-02T08:00:00Z,26.4645,-82.1044,1.64,25.92,2 
SCCF RECON,ioos:station:SCCF:56:1,2016-01-02T09:00:00Z,26.4645,-82.1044,1.64,25.33,2 
SCCF RECON,ioos:station:SCCF:56:1,2016-01-02T10:00:00Z,26.4645,-82.1044,1.64,25.25,2 
SCCF RECON,ioos:station:SCCF:56:1,2016-01-02T11:00:00Z,26.4645,-82.1044,1.64,25.16,2 
SCCF RECON,ioos:station:SCCF:56:1,2016-01-02T12:00:00Z,26.4645,-82.1044,1.64,25.14,2 
SCCF RECON,ioos:station:SCCF:56:1,2016-01-02T13:00:00Z,26.4645,-82.1044,1.64,25.2,2 
SCCF RECON,ioos:station:SCCF:56:1,2016-01-02T14:00:00Z,26.4645,-82.1044,1.64,25.31,2 
SCCF RECON,ioos:station:SCCF:56:1,2016-01-02T15:00:00Z,26.4645,-82.1044,1.64,25.37,2 
SCCF RECON,ioos:station:SCCF:56:1,2016-01-02T16:00:00Z,26.4645,-82.1044,1.64,25.54,2 
SCCF RECON,ioos:station:SCCF:56:1,2016-01-02T17:00:00Z,26.4645,-82.1044,1.64,25.76,2 
SCCF RECON,ioos:station:SCCF:56:1,2016-01-02T18:00:00Z,26.4645,-82.1044,1.64,25.79,2 
SCCF RECON,ioos:station:SCCF:56:1,2016-01-02T19:00:00Z,26.4645,-82.1044,1.64,26.16,2 
SCCF RECON,ioos:station:SCCF:56:1,2016-01-02T20:00:00Z,26.4645,-82.1044,1.64,26.91,2 
SCCF RECON,ioos:station:SCCF:56:1,2016-01-02T21:00:00Z,26.4645,-82.1044,1.64,26.54,2 
SCCF RECON,ioos:station:SCCF:56:1,2016-01-02T22:00:00Z,26.4645,-82.1044,1.64,26.01,2 
SCCF RECON,ioos:station:SCCF:56:1,2016-01-02T23:00:00Z,26.4645,-82.1044,1.64,25.81,2 
SCCF RECON,ioos:station:SCCF:56:1,2016-01-03T00:00:00Z,26.4645,-82.1044,1.64,25.65,2 
SCCF RECON,ioos:station:SCCF:56:1,2016-01-03T01:00:00Z,26.4645,-82.1044,1.64,25.56,2 
SCCF RECON,ioos:station:SCCF:56:1,2016-01-03T02:00:00Z,26.4645,-82.1044,1.64,25.42,2 
SCCF RECON,ioos:station:SCCF:56:1,2016-01-03T03:00:00Z,26.4645,-82.1044,1.64,25.35,2 
SCCF RECON,ioos:station:SCCF:56:1,2016-01-03T04:00:00Z,26.4645,-82.1044,1.64,25.26,2 
SCCF RECON,ioos:station:SCCF:56:1,2016-01-03T05:00:00Z,26.4645,-82.1044,1.64,25.11,2 
SCCF RECON,ioos:station:SCCF:56:1,2016-01-03T06:00:00Z,26.4645,-82.1044,1.64,25.02,2 
SCCF RECON,ioos:station:SCCF:56:1,2016-01-03T07:00:00Z,26.4645,-82.1044,1.64,24.82,2 
SCCF RECON,ioos:station:SCCF:56:1,2016-01-03T08:00:00Z,26.4645,-82.1044,1.64,24.59,2 
SCCF RECON,ioos:station:SCCF:56:1,2016-01-03T09:00:00Z,26.4645,-82.1044,1.64,24.44,2 
SCCF RECON,ioos:station:SCCF:56:1,2016-01-03T10:00:00Z,26.4645,-82.1044,1.64,23.85,2 
SCCF RECON,ioos:station:SCCF:56:1,2016-01-03T11:00:00Z,26.4645,-82.1044,1.64,23.87,2 
SCCF RECON,ioos:station:SCCF:56:1,2016-01-03T12:00:00Z,26.4645,-82.1044,1.64,24.12,2 
SCCF RECON,ioos:station:SCCF:56:1,2016-01-03T13:00:00Z,26.4645,-82.1044,1.64,24.02,2 
SCCF RECON,ioos:station:SCCF:56:1,2016-01-03T14:00:00Z,26.4645,-82.1044,1.64,23.71,2 
SCCF RECON,ioos:station:SCCF:56:1,2016-01-03T15:00:00Z,26.4645,-82.1044,1.64,23.68,2 
SCCF RECON,ioos:station:SCCF:56:1,2016-01-03T16:00:00Z,26.4645,-82.1044,1.64,23.37,2 
SCCF RECON,ioos:station:SCCF:56:1,2016-01-03T17:00:00Z,26.4645,-82.1044,1.64,23.51,2 
SCCF RECON,ioos:station:SCCF:56:1,2016-01-03T18:00:00Z,26.4645,-82.1044,1.64,23.3,2 
SCCF RECON,ioos:station:SCCF:56:1,2016-01-03T19:00:00Z,26.4645,-82.1044,1.64,23.16,2 
SCCF RECON,ioos:station:SCCF:56:1,2016-01-03T20:00:00Z,26.4645,-82.1044,1.64,22.71,2 
SCCF RECON,ioos:station:SCCF:56:1,2016-01-03T21:00:00Z,26.4645,-82.1044,1.64,22.4,2 
SCCF RECON,ioos:station:SCCF:56:1,2016-01-03T22:00:00Z,26.4645,-82.1044,1.64,22.41,2 
SCCF RECON,ioos:station:SCCF:56:1,2016-01-03T23:00:00Z,26.4645,-82.1044,1.64,22.88,2 
SCCF RECON,ioos:station:SCCF:56:1,2016-01-04T00:00:00Z,26.4645,-82.1044,1.64,22.87,2 
SCCF RECON,ioos:station:SCCF:56:1,2016-01-04T01:00:00Z,26.4645,-82.1044,1.64,22.98,2 
SCCF RECON,ioos:station:SCCF:56:1,2016-01-04T02:00:00Z,26.4645,-82.1044,1.64,22.71,2 
SCCF RECON,ioos:station:SCCF:56:1,2016-01-04T03:00:00Z,26.4645,-82.1044,1.64,22.61,2 
SCCF RECON,ioos:station:SCCF:56:1,2016-01-04T04:00:00Z,26.4645,-82.1044,1.64,22.33,2 
SCCF RECON,ioos:station:SCCF:56:1,2016-01-04T05:00:00Z,26.4645,-82.1044,1.64,22.04,2 
SCCF RECON,ioos:station:SCCF:56:1,2016-01-04T06:00:00Z,26.4645,-82.1044,1.64,21.9,2 
SCCF RECON,ioos:station:SCCF:56:1,2016-01-04T07:00:00Z,26.4645,-82.1044,1.64,21.72,2 
SCCF RECON,ioos:station:SCCF:56:1,2016-01-04T08:00:00Z,26.4645,-82.1044,1.64,21.33,2 
SCCF RECON,ioos:station:SCCF:56:1,2016-01-04T09:00:00Z,26.4645,-82.1044,1.64,20.96,2 
SCCF RECON,ioos:station:SCCF:56:1,2016-01-04T10:00:00Z,26.4645,-82.1044,1.64,20.79,2 
SCCF RECON,ioos:station:SCCF:56:1,2016-01-04T11:00:00Z,26.4645,-82.1044,1.64,19.33,2 
SCCF RECON,ioos:station:SCCF:56:1,2016-01-04T12:00:00Z,26.4645,-82.1044,1.64,19.32,2 
SCCF RECON,ioos:station:SCCF:56:1,2016-01-04T13:00:00Z,26.4645,-82.1044,1.64,19.75,2 
SCCF RECON,ioos:station:SCCF:56:1,2016-01-04T14:00:00Z,26.4645,-82.1044,1.64,20.09,2 
SCCF RECON,ioos:station:SCCF:56:1,2016-01-04T15:00:00Z,26.4645,-82.1044,1.64,20.22,2 
SCCF RECON,ioos:station:SCCF:56:1,2016-01-04T16:00:00Z,26.4645,-82.1044,1.64,20.12,2 
SCCF RECON,ioos:station:SCCF:56:1,2016-01-04T17:00:00Z,26.4645,-82.1044,1.64,20.39,2 
SCCF RECON,ioos:station:SCCF:56:1,2016-01-04T18:00:00Z,26.4645,-82.1044,1.64,20.58,2 
SCCF RECON,ioos:station:SCCF:56:1,2016-01-04T19:00:00Z,26.4645,-82.1044,1.64,20.66,2 
SCCF RECON,ioos:station:SCCF:56:1,2016-01-04T20:00:00Z,26.4645,-82.1044,1.64,20.15,2 
SCCF RECON,ioos:station:SCCF:56:1,2016-01-04T21:00:00Z,26.4645,-82.1044,1.64,20.79,2 
SCCF RECON,ioos:station:SCCF:56:1,2016-01-04T22:00:00Z,26.4645,-82.1044,1.64,19.91,2 
SCCF RECON,ioos:station:SCCF:56:1,2016-01-04T23:00:00Z,26.4645,-82.1044,1.64,19.9,2 
SCCF RECON,ioos:station:SCCF:56:1,2016-01-05T00:00:00Z,26.4645,-82.1044,1.64,19.62,2 
SCCF RECON,ioos:station:SCCF:56:1,2016-01-05T01:00:00Z,26.4645,-82.1044,1.64,19.46,2 
SCCF RECON,ioos:station:SCCF:56:1,2016-01-05T02:00:00Z,26.4645,-82.1044,1.64,19.71,2 
SCCF RECON,ioos:station:SCCF:56:1,2016-01-05T03:00:00Z,26.4645,-82.1044,1.64,19.68,2 
SCCF RECON,ioos:station:SCCF:56:1,2016-01-05T04:00:00Z,26.4645,-82.1044,1.64,19.61,2 
SCCF RECON,ioos:station:SCCF:56:1,2016-01-05T05:00:00Z,26.4645,-82.1044,1.64,19.5,2 
SCCF RECON,ioos:station:SCCF:56:1,2016-01-05T06:00:00Z,26.4645,-82.1044,1.64,19.23,2 
SCCF RECON,ioos:station:SCCF:56:1,2016-01-05T07:00:00Z,26.4645,-82.1044,1.64,18.8,2 
SCCF RECON,ioos:station:SCCF:56:1,2016-01-05T08:00:00Z,26.4645,-82.1044,1.64,18.63,2 
SCCF RECON,ioos:station:SCCF:56:1,2016-01-05T09:00:00Z,26.4645,-82.1044,1.64,18.08,2 
SCCF RECON,ioos:station:SCCF:56:1,2016-01-05T10:00:00Z,26.4645,-82.1044,1.64,17.92,2 
SCCF RECON,ioos:station:SCCF:56:1,2016-01-05T11:00:00Z,26.4645,-82.1044,1.64,17.62,2 
SCCF RECON,ioos:station:SCCF:56:1,2016-01-05T12:00:00Z,26.4645,-82.1044,1.64,17.74,2 
SCCF RECON,ioos:station:SCCF:56:1,2016-01-05T13:00:00Z,26.4645,-82.1044,1.64,17.91,2 
SCCF RECON,ioos:station:SCCF:56:1,2016-01-05T14:00:00Z,26.4645,-82.1044,1.64,17.91,2 
SCCF RECON,ioos:station:SCCF:56:1,2016-01-05T15:00:00Z,26.4645,-82.1044,1.64,18.26,2 
SCCF RECON,ioos:station:SCCF:56:1,2016-01-05T16:00:00Z,26.4645,-82.1044,1.64,18.64,2 
SCCF RECON,ioos:station:SCCF:56:1,2016-01-05T17:00:00Z,26.4645,-82.1044,1.64,18.07,2 
SCCF RECON,ioos:station:SCCF:56:1,2016-01-05T18:00:00Z,26.4645,-82.1044,1.64,18.61,2 
SCCF RECON,ioos:station:SCCF:56:1,2016-01-05T19:00:00Z,26.4645,-82.1044,1.64,18.31,2 
SCCF RECON,ioos:station:SCCF:56:1,2016-01-05T20:00:00Z,26.4645,-82.1044,1.64,18.52,2 
SCCF RECON,ioos:station:SCCF:56:1,2016-01-05T21:00:00Z,26.4645,-82.1044,1.64,18.66,2 
SCCF RECON,ioos:station:SCCF:56:1,2016-01-05T22:00:00Z,26.4645,-82.1044,1.64,18.6,2 
SCCF RECON,ioos:station:SCCF:56:1,2016-01-05T23:00:00Z,26.4645,-82.1044,1.64,18.6,2 
SCCF RECON,ioos:station:SCCF:56:1,2016-01-06T00:00:00Z,26.4645,-82.1044,1.64,18.53,2 
SCCF RECON,ioos:station:SCCF:56:1,2016-01-06T01:00:00Z,26.4645,-82.1044,1.64,18.44,2 
SCCF RECON,ioos:station:SCCF:56:1,2016-01-06T02:00:00Z,26.4645,-82.1044,1.64,18.48,2 
SCCF RECON,ioos:station:SCCF:56:1,2016-01-06T03:00:00Z,26.4645,-82.1044,1.64,18.41,2 
SCCF RECON,ioos:station:SCCF:56:1,2016-01-06T04:00:00Z,26.4645,-82.1044,1.64,18.25,2 
SCCF RECON,ioos:station:SCCF:56:1,2016-01-06T05:00:00Z,26.4645,-82.1044,1.64,18.02,2 
SCCF RECON,ioos:station:SCCF:56:1,2016-01-06T06:00:00Z,26.4645,-82.1044,1.64,17.95,2 
SCCF RECON,ioos:station:SCCF:56:1,2016-01-06T07:00:00Z,26.4645,-82.1044,1.64,17.78,2 
SCCF RECON,ioos:station:SCCF:56:1,2016-01-06T08:00:00Z,26.4645,-82.1044,1.64,17.72,2 
SCCF RECON,ioos:station:SCCF:56:1,2016-01-06T09:00:00Z,26.4645,-82.1044,1.64,17.42,2 
SCCF RECON,ioos:station:SCCF:56:1,2016-01-06T10:00:00Z,26.4645,-82.1044,1.64,17.41,2 
SCCF RECON,ioos:station:SCCF:56:1,2016-01-06T11:00:00Z,26.4645,-82.1044,1.64,17.33,2 
SCCF RECON,ioos:station:SCCF:56:1,2016-01-06T12:00:00Z,26.4645,-82.1044,1.64,18.09,2 
SCCF RECON,ioos:station:SCCF:56:1,2016-01-06T13:00:00Z,26.4645,-82.1044,1.64,18.15,2 
SCCF RECON,ioos:station:SCCF:56:1,2016-01-06T14:00:00Z,26.4645,-82.1044,1.64,18.19,2 
SCCF RECON,ioos:station:SCCF:56:1,2016-01-06T15:00:00Z,26.4645,-82.1044,1.64,18.32,2 
SCCF RECON,ioos:station:SCCF:56:1,2016-01-06T16:00:00Z,26.4645,-82.1044,1.64,18.63,2 
SCCF RECON,ioos:station:SCCF:56:1,2016-01-06T17:00:00Z,26.4645,-82.1044,1.64,19.05,2 
SCCF RECON,ioos:station:SCCF:56:1,2016-01-06T18:00:00Z,26.4645,-82.1044,1.64,19.13,2 
SCCF RECON,ioos:station:SCCF:56:1,2016-01-06T19:00:00Z,26.4645,-82.1044,1.64,19.07,2 
SCCF RECON,ioos:station:SCCF:56:1,2016-01-06T20:00:00Z,26.4645,-82.1044,1.64,19.13,2 
SCCF RECON,ioos:station:SCCF:56:1,2016-01-06T21:00:00Z,26.4645,-82.1044,1.64,19.8,2 
SCCF RECON,ioos:station:SCCF:56:1,2016-01-06T22:00:00Z,26.4645,-82.1044,1.64,19.89,2 
SCCF RECON,ioos:station:SCCF:56:1,2016-01-06T23:00:00Z,26.4645,-82.1044,1.64,19.65,2 
SCCF RECON,ioos:station:SCCF:56:1,2016-01-07T00:00:00Z,26.4645,-82.1044,1.64,19.53,2 
SCCF RECON,ioos:station:SCCF:56:1,2016-01-07T01:00:00Z,26.4645,-82.1044,1.64,19.49,2 
SCCF RECON,ioos:station:SCCF:56:1,2016-01-07T02:00:00Z,26.4645,-82.1044,1.64,19.44,2 
SCCF RECON,ioos:station:SCCF:56:1,2016-01-07T03:00:00Z,26.4645,-82.1044,1.64,19.42,2 
SCCF RECON,ioos:station:SCCF:56:1,2016-01-07T04:00:00Z,26.4645,-82.1044,1.64,19.37,2 
SCCF RECON,ioos:station:SCCF:56:1,2016-01-07T05:00:00Z,26.4645,-82.1044,1.64,19.42,2 
SCCF RECON,ioos:station:SCCF:56:1,2016-01-07T06:00:00Z,26.4645,-82.1044,1.64,19.37,2 
SCCF RECON,ioos:station:SCCF:56:1,2016-01-07T07:00:00Z,26.4645,-82.1044,1.64,19.3,2 
SCCF RECON,ioos:station:SCCF:56:1,2016-01-07T08:00:00Z,26.4645,-82.1044,1.64,19.25,2 
SCCF RECON,ioos:station:SCCF:56:1,2016-01-07T09:00:00Z,26.4645,-82.1044,1.64,19.15,2 
SCCF RECON,ioos:station:SCCF:56:1,2016-01-07T10:00:00Z,26.4645,-82.1044,1.64,19.08,2 
SCCF RECON,ioos:station:SCCF:56:1,2016-01-07T11:00:00Z,26.4645,-82.1044,1.64,19.04,2 
SCCF RECON,ioos:station:SCCF:56:1,2016-01-07T12:00:00Z,26.4645,-82.1044,1.64,19.0,2 
SCCF RECON,ioos:station:SCCF:56:1,2016-01-07T13:00:00Z,26.4645,-82.1044,1.64,18.84,2 
SCCF RECON,ioos:station:SCCF:56:1,2016-01-07T14:00:00Z,26.4645,-82.1044,1.64,18.87,2 
SCCF RECON,ioos:station:SCCF:56:1,2016-01-07T15:00:00Z,26.4645,-82.1044,1.64,18.85,2 
SCCF RECON,ioos:station:SCCF:56:1,2016-01-07T16:00:00Z,26.4645,-82.1044,1.64,19.13,2 
SCCF RECON,ioos:station:SCCF:56:1,2016-01-07T17:00:00Z,26.4645,-82.1044,1.64,19.28,2 
SCCF RECON,ioos:station:SCCF:56:1,2016-01-07T18:00:00Z,26.4645,-82.1044,1.64,19.64,2 
SCCF RECON,ioos:station:SCCF:56:1,2016-01-07T19:00:00Z,26.4645,-82.1044,1.64,19.66,2 
SCCF RECON,ioos:station:SCCF:56:1,2016-01-07T20:00:00Z,26.4645,-82.1044,1.64,19.78,2 
SCCF RECON,ioos:station:SCCF:56:1,2016-01-07T21:00:00Z,26.4645,-82.1044,1.64,20.1,2 
SCCF RECON,ioos:station:SCCF:56:1,2016-01-07T22:00:00Z,26.4645,-82.1044,1.64,20.19,2 
SCCF RECON,ioos:station:SCCF:56:1,2016-01-07T23:00:00Z,26.4645,-82.1044,1.64,20.6,2 
SCCF RECON,ioos:station:SCCF:56:1,2016-01-08T00:00:00Z,26.4645,-82.1044,1.64,20.32,2 
SCCF RECON,ioos:station:SCCF:56:1,2016-01-08T01:00:00Z,26.4645,-82.1044,1.64,20.18,2 
SCCF RECON,ioos:station:SCCF:56:1,2016-01-08T02:00:00Z,26.4645,-82.1044,1.64,20.07,2 
SCCF RECON,ioos:station:SCCF:56:1,2016-01-08T03:00:00Z,26.4645,-82.1044,1.64,19.89,2 
SCCF RECON,ioos:station:SCCF:56:1,2016-01-08T04:00:00Z,26.4645,-82.1044,1.64,19.84,2 
SCCF RECON,ioos:station:SCCF:56:1,2016-01-08T05:00:00Z,26.4645,-82.1044,1.64,19.72,2 
SCCF RECON,ioos:station:SCCF:56:1,2016-01-08T06:00:00Z,26.4645,-82.1044,1.64,19.79,2 
SCCF RECON,ioos:station:SCCF:56:1,2016-01-08T07:00:00Z,26.4645,-82.1044,1.64,19.84,2 
SCCF RECON,ioos:station:SCCF:56:1,2016-01-08T08:00:00Z,26.4645,-82.1044,1.64,19.86,2 
SCCF RECON,ioos:station:SCCF:56:1,2016-01-08T09:00:00Z,26.4645,-82.1044,1.64,19.84,2 
SCCF RECON,ioos:station:SCCF:56:1,2016-01-08T10:00:00Z,26.4645,-82.1044,1.64,19.84,2 
SCCF RECON,ioos:station:SCCF:56:1,2016-01-08T11:00:00Z,26.4645,-82.1044,1.64,19.83,2 
SCCF RECON,ioos:station:SCCF:56:1,2016-01-08T12:00:00Z,26.4645,-82.1044,1.64,19.83,2 
SCCF RECON,ioos:station:SCCF:56:1,2016-01-08T13:00:00Z,26.4645,-82.1044,1.64,19.81,2 
SCCF RECON,ioos:station:SCCF:56:1,2016-01-08T14:00:00Z,26.4645,-82.1044,1.64,19.83,2 
SCCF RECON,ioos:station:SCCF:56:1,2016-01-08T15:00:00Z,26.4645,-82.1044,1.64,19.76,2 
SCCF RECON,ioos:station:SCCF:56:1,2016-01-08T16:00:00Z,26.4645,-82.1044,1.64,19.7,2 
SCCF RECON,ioos:station:SCCF:56:1,2016-01-08T17:00:00Z,26.4645,-82.1044,1.64,19.8,2 
SCCF RECON,ioos:station:SCCF:56:1,2016-01-08T18:00:00Z,26.4645,-82.1044,1.64,19.93,2 
SCCF RECON,ioos:station:SCCF:56:1,2016-01-08T19:00:00Z,26.4645,-82.1044,1.64,19.98,2 
SCCF RECON,ioos:station:SCCF:56:1,2016-01-08T20:00:00Z,26.4645,-82.1044,1.64,20.24,2 
SCCF RECON,ioos:station:SCCF:56:1,2016-01-08T21:00:00Z,26.4645,-82.1044,1.64,20.5,2 
SCCF RECON,ioos:station:SCCF:56:1,2016-01-08T22:00:00Z,26.4645,-82.1044,1.64,20.63,2 
SCCF RECON,ioos:station:SCCF:56:1,2016-01-08T23:00:00Z,26.4645,-82.1044,1.64,20.82,2 
SCCF RECON,ioos:station:SCCF:56:1,2016-01-09T00:00:00Z,26.4645,-82.1044,1.64,20.69,2 
SCCF RECON,ioos:station:SCCF:56:1,2016-01-09T01:00:00Z,26.4645,-82.1044,1.64,20.15,2 
SCCF RECON,ioos:station:SCCF:56:1,2016-01-09T02:00:00Z,26.4645,-82.1044,1.64,20.06,2 
SCCF RECON,ioos:station:SCCF:56:1,2016-01-09T03:00:00Z,26.4645,-82.1044,1.64,20.09,2 
SCCF RECON,ioos:station:SCCF:56:1,2016-01-09T04:00:00Z,26.4645,-82.1044,1.64,20.09,2 
SCCF RECON,ioos:station:SCCF:56:1,2016-01-09T05:00:00Z,26.4645,-82.1044,1.64,20.1,2 
SCCF RECON,ioos:station:SCCF:56:1,2016-01-09T06:00:00Z,26.4645,-82.1044,1.64,20.25,2 
SCCF RECON,ioos:station:SCCF:56:1,2016-01-09T07:00:00Z,26.4645,-82.1044,1.64,20.09,2 
SCCF RECON,ioos:station:SCCF:56:1,2016-01-09T08:00:00Z,26.4645,-82.1044,1.64,20.22,2 
SCCF RECON,ioos:station:SCCF:56:1,2016-01-09T09:00:00Z,26.4645,-82.1044,1.64,20.35,2 
SCCF RECON,ioos:station:SCCF:56:1,2016-01-09T10:00:00Z,26.4645,-82.1044,1.64,20.41,2 
SCCF RECON,ioos:station:SCCF:56:1,2016-01-09T11:00:00Z,26.4645,-82.1044,1.64,20.45,2 
SCCF RECON,ioos:station:SCCF:56:1,2016-01-09T12:00:00Z,26.4645,-82.1044,1.64,20.45,2 
SCCF RECON,ioos:station:SCCF:56:1,2016-01-09T13:00:00Z,26.4645,-82.1044,1.64,20.55,2 
SCCF RECON,ioos:station:SCCF:56:1,2016-01-09T14:00:00Z,26.4645,-82.1044,1.64,20.43,2 
SCCF RECON,ioos:station:SCCF:56:1,2016-01-09T15:00:00Z,26.4645,-82.1044,1.64,20.35,2 
SCCF RECON,ioos:station:SCCF:56:1,2016-01-09T16:00:00Z,26.4645,-82.1044,1.64,20.45,2 
SCCF RECON,ioos:station:SCCF:56:1,2016-01-09T17:00:00Z,26.4645,-82.1044,1.64,20.57,2 
SCCF RECON,ioos:station:SCCF:56:1,2016-01-09T18:00:00Z,26.4645,-82.1044,1.64,20.95,2 
SCCF RECON,ioos:station:SCCF:56:1,2016-01-09T19:00:00Z,26.4645,-82.1044,1.64,21.17,2 
SCCF RECON,ioos:station:SCCF:56:1,2016-01-09T20:00:00Z,26.4645,-82.1044,1.64,21.27,2 
SCCF RECON,ioos:station:SCCF:56:1,2016-01-09T21:00:00Z,26.4645,-82.1044,1.64,21.17,2 
SCCF RECON,ioos:station:SCCF:56:1,2016-01-09T22:00:00Z,26.4645,-82.1044,1.64,21.29,2 
SCCF RECON,ioos:station:SCCF:56:1,2016-01-09T23:00:00Z,26.4645,-82.1044,1.64,21.37,2 
SCCF RECON,ioos:station:SCCF:56:1,2016-01-10T00:00:00Z,26.4645,-82.1044,1.64,21.27,2 
SCCF RECON,ioos:station:SCCF:56:1,2016-01-10T01:00:00Z,26.4645,-82.1044,1.64,20.98,2 
SCCF RECON,ioos:station:SCCF:56:1,2016-01-10T02:00:00Z,26.4645,-82.1044,1.64,21.01,2 
SCCF RECON,ioos:station:SCCF:56:1,2016-01-10T03:00:00Z,26.4645,-82.1044,1.64,20.92,2 
SCCF RECON,ioos:station:SCCF:56:1,2016-01-10T04:00:00Z,26.4645,-82.1044,1.64,20.92,2 
SCCF RECON,ioos:station:SCCF:56:1,2016-01-10T05:00:00Z,26.4645,-82.1044,1.64,20.91,2 
SCCF RECON,ioos:station:SCCF:56:1,2016-01-10T06:00:00Z,26.4645,-82.1044,1.64,20.9,2 
SCCF RECON,ioos:station:SCCF:56:1,2016-01-10T07:00:00Z,26.4645,-82.1044,1.64,20.94,2 
SCCF RECON,ioos:station:SCCF:56:1,2016-01-10T08:00:00Z,26.4645,-82.1044,1.64,20.98,2 
SCCF RECON,ioos:station:SCCF:56:1,2016-01-10T09:00:00Z,26.4645,-82.1044,1.64,21.1,2 
SCCF RECON,ioos:station:SCCF:56:1,2016-01-10T10:00:00Z,26.4645,-82.1044,1.64,21.22,2 
SCCF RECON,ioos:station:SCCF:56:1,2016-01-10T11:00:00Z,26.4645,-82.1044,1.64,21.32,2 
SCCF RECON,ioos:station:SCCF:56:1,2016-01-10T12:00:00Z,26.4645,-82.1044,1.64,21.4,2 
SCCF RECON,ioos:station:SCCF:56:1,2016-01-10T13:00:00Z,26.4645,-82.1044,1.64,21.43,2 
SCCF RECON,ioos:station:SCCF:56:1,2016-01-10T14:00:00Z,26.4645,-82.1044,1.64,21.5,2 
SCCF RECON,ioos:station:SCCF:56:1,2016-01-10T15:00:00Z,26.4645,-82.1044,1.64,21.13,2 
SCCF RECON,ioos:station:SCCF:56:1,2016-01-10T16:00:00Z,26.4645,-82.1044,1.64,21.06,2 
SCCF RECON,ioos:station:SCCF:56:1,2016-01-10T17:00:00Z,26.4645,-82.1044,1.64,21.18,2 
SCCF RECON,ioos:station:SCCF:56:1,2016-01-10T18:00:00Z,26.4645,-82.1044,1.64,21.29,2 
SCCF RECON,ioos:station:SCCF:56:1,2016-01-10T19:00:00Z,26.4645,-82.1044,1.64,21.42,2 
SCCF RECON,ioos:station:SCCF:56:1,2016-01-10T20:00:00Z,26.4645,-82.1044,1.64,21.41,2 
SCCF RECON,ioos:station:SCCF:56:1,2016-01-10T21:00:00Z,26.4645,-82.1044,1.64,21.51,2 
SCCF RECON,ioos:station:SCCF:56:1,2016-01-10T22:00:00Z,26.4645,-82.1044,1.64,21.68,2 
SCCF RECON,ioos:station:SCCF:56:1,2016-01-10T23:00:00Z,26.4645,-82.1044,1.64,21.73,2 
SCCF RECON,ioos:station:SCCF:56:1,2016-01-11T00:00:00Z,26.4645,-82.1044,1.64,21.69,2 
SCCF RECON,ioos:station:SCCF:56:1,2016-01-11T01:00:00Z,26.4645,-82.1044,1.64,21.62,2 
SCCF RECON,ioos:station:SCCF:56:1,2016-01-11T02:00:00Z,26.4645,-82.1044,1.64,21.57,2 
SCCF RECON,ioos:station:SCCF:56:1,2016-01-11T03:00:00Z,26.4645,-82.1044,1.64,20.81,2 
SCCF RECON,ioos:station:SCCF:56:1,2016-01-11T04:00:00Z,26.4645,-82.1044,1.64,20.36,2 
SCCF RECON,ioos:station:SCCF:56:1,2016-01-11T05:00:00Z,26.4645,-82.1044,1.64,20.71,2 
SCCF RECON,ioos:station:SCCF:56:1,2016-01-11T06:00:00Z,26.4645,-82.1044,1.64,20.63,2 
SCCF RECON,ioos:station:SCCF:56:1,2016-01-11T07:00:00Z,26.4645,-82.1044,1.64,20.45,2 
SCCF RECON,ioos:station:SCCF:56:1,2016-01-11T08:00:00Z,26.4645,-82.1044,1.64,20.32,2 
SCCF RECON,ioos:station:SCCF:56:1,2016-01-11T09:00:00Z,26.4645,-82.1044,1.64,20.34,2 
SCCF RECON,ioos:station:SCCF:56:1,2016-01-11T10:00:00Z,26.4645,-82.1044,1.64,20.2,2 
SCCF RECON,ioos:station:SCCF:56:1,2016-01-11T11:00:00Z,26.4645,-82.1044,1.64,19.97,2 
SCCF RECON,ioos:station:SCCF:56:1,2016-01-11T12:00:00Z,26.4645,-82.1044,1.64,19.69,2 
SCCF RECON,ioos:station:SCCF:56:1,2016-01-11T13:00:00Z,26.4645,-82.1044,1.64,19.36,2 
SCCF RECON,ioos:station:SCCF:56:1,2016-01-11T14:00:00Z,26.4645,-82.1044,1.64,19.12,2 
SCCF RECON,ioos:station:SCCF:56:1,2016-01-11T15:00:00Z,26.4645,-82.1044,1.64,18.92,2 
SCCF RECON,ioos:station:SCCF:56:1,2016-01-11T16:00:00Z,26.4645,-82.1044,1.64,18.92,2 
SCCF RECON,ioos:station:SCCF:56:1,2016-01-11T17:00:00Z,26.4645,-82.1044,1.64,19.08,2 
SCCF RECON,ioos:station:SCCF:56:1,2016-01-11T18:00:00Z,26.4645,-82.1044,1.64,19.38,2 
SCCF RECON,ioos:station:SCCF:56:1,2016-01-11T19:00:00Z,26.4645,-82.1044,1.64,19.98,2 
SCCF RECON,ioos:station:SCCF:56:1,2016-01-11T20:00:00Z,26.4645,-82.1044,1.64,20.14,2 
SCCF RECON,ioos:station:SCCF:56:1,2016-01-11T21:00:00Z,26.4645,-82.1044,1.64,20.19,2 
SCCF RECON,ioos:station:SCCF:56:1,2016-01-11T22:00:00Z,26.4645,-82.1044,1.64,20.08,2 
SCCF RECON,ioos:station:SCCF:56:1,2016-01-11T23:00:00Z,26.4645,-82.1044,1.64,20.12,2 
SCCF RECON,ioos:station:SCCF:56:1,2016-01-12T00:00:00Z,26.4645,-82.1044,1.64,19.91,2 
SCCF RECON,ioos:station:SCCF:56:1,2016-01-12T01:00:00Z,26.4645,-82.1044,1.64,19.8,2 
SCCF RECON,ioos:station:SCCF:56:1,2016-01-12T02:00:00Z,26.4645,-82.1044,1.64,19.67,2 
SCCF RECON,ioos:station:SCCF:56:1,2016-01-12T03:00:00Z,26.4645,-82.1044,1.64,18.98,2 
SCCF RECON,ioos:station:SCCF:56:1,2016-01-12T04:00:00Z,26.4645,-82.1044,1.64,19.01,2 
SCCF RECON,ioos:station:SCCF:56:1,2016-01-12T05:00:00Z,26.4645,-82.1044,1.64,18.96,2 
SCCF RECON,ioos:station:SCCF:56:1,2016-01-12T06:00:00Z,26.4645,-82.1044,1.64,19.13,2 
SCCF RECON,ioos:station:SCCF:56:1,2016-01-12T07:00:00Z,26.4645,-82.1044,1.64,19.01,2 
SCCF RECON,ioos:station:SCCF:56:1,2016-01-12T08:00:00Z,26.4645,-82.1044,1.64,18.75,2 
SCCF RECON,ioos:station:SCCF:56:1,2016-01-12T09:00:00Z,26.4645,-82.1044,1.64,18.63,2 
SCCF RECON,ioos:station:SCCF:56:1,2016-01-12T10:00:00Z,26.4645,-82.1044,1.64,18.47,2 
SCCF RECON,ioos:station:SCCF:56:1,2016-01-12T11:00:00Z,26.4645,-82.1044,1.64,18.21,2 
SCCF RECON,ioos:station:SCCF:56:1,2016-01-12T12:00:00Z,26.4645,-82.1044,1.64,17.95,2 
SCCF RECON,ioos:station:SCCF:56:1,2016-01-12T13:00:00Z,26.4645,-82.1044,1.64,17.61,2 